GLOBALSTAR M047 [-]

Last updated on July 6, 2021, 3:36 p.m. UTC

1 25772U 99031C   21186.89177814 -.00000056  00000-0  38005-3 0  9999
2 25772  51.9860 357.4098 0015654 307.7911  52.1477 11.31903152307786
UTC
Height (km)
Latitude
Longitude
Inclination
Orbital Period
UTC large
Height (km)
Speed (km/s)
/
Latitude / Longitude
Inclination (degrees)
Orbital Period (minutes)
Azimuth
Elevation
Range (km)
Doppler Factor
iOS Compass Heading
iOS Angle